Date String (YYYY-MM-DD hh:mm:ss) UTC,Instrument flags,absolute air pressure of the measurement (hPa),sample flow rate (lpm),inlet stack bypass flow (lpm),air temperature of the measurement (°C),ambient temperature measured by the external sensor (°C),aerosol sample conditioner tube jacket temperature (°C),OPC LED temperature (°C),internal box temperature (°C),relative humidity of the measurement (%),span deviation,mass concentration of particles derived from Lorenz-Mie calculation of OPC scattering (μg/m³),mass concentration of particles derived from Lorenz-Mie calculation of OPC scattering (μg/m³),mass concentration of particles derived from Lorenz-Mie calculation of OPC scattering (μg/m³)
DateTimeUTC,F1_M11,P_M11,Q1_M11,Q2_M11,T1_M11,T2_M11,T3_M11,T4_M11,T5_M11,U1_M11,ZSPAN_M11,X0_M11,X2_M11,X1_M11
2023-10-11 00:00:00,SystemResetWarning,0820.0,5.00,000.00,028.0,025.5,000.0,036.5,029.6,9.4,0000.0,0021.72,0005.34,0003.76
2023-10-11 00:01:00,SystemResetWarning,0820.1,5.00,000.00,028.0,025.9,000.0,036.5,029.7,9.5,0000.0,0022.23,0005.37,0003.77
2023-10-11 00:02:00,SystemResetWarning,0820.1,5.00,000.00,028.0,026.2,000.0,036.5,029.8,9.5,0000.0,0022.21,0005.36,0003.77
2023-10-11 00:03:00,SystemResetWarning,0820.1,5.00,000.00,028.1,026.5,000.0,036.5,029.9,10.3,0000.0,0021.89,0005.35,0003.77
2023-10-11 00:04:00,SystemResetWarning,0820.1,5.00,000.00,028.1,026.7,000.0,036.5,029.9,10.2,0000.0,0023.51,0005.34,0003.76
2023-10-11 00:05:00,SystemResetWarning,0820.1,4.99,000.00,028.2,026.9,000.0,036.6,030.0,10.1,0000.0,0022.43,0005.36,0003.75
2023-10-11 00:06:00,SystemResetWarning,0820.1,5.00,000.00,028.2,027.1,000.0,036.6,030.1,10.0,0000.0,0023.70,0005.32,0003.74
2023-10-11 00:07:00,SystemResetWarning,0820.1,5.00,000.00,028.3,027.2,000.0,036.6,030.1,10.0,0000.0,0024.40,0005.25,0003.73
2023-10-11 00:08:00,SystemResetWarning,0820.1,5.00,000.00,028.3,027.3,000.0,036.6,030.2,9.5,0000.0,0024.10,0005.21,0003.71
2023-10-11 00:09:00,SystemResetWarning,0820.1,4.99,000.00,028.3,027.0,000.0,036.7,030.2,9.4,0000.0,0022.93,0005.20,0003.71
2023-10-11 00:10:00,SystemResetWarning,0820.1,5.00,000.00,028.3,025.1,000.0,036.6,030.0,9.6,0000.0,0022.82,0005.16,0003.71
2023-10-11 00:11:00,SystemResetWarning,0820.1,5.02,000.00,028.2,023.8,000.0,036.5,029.8,9.7,0000.0,0023.13,0005.15,0003.70
2023-10-11 00:12:00,SystemResetWarning,0820.0,5.01,000.00,028.1,023.9,000.0,036.5,029.6,9.5,0000.0,0024.44,0005.15,0003.70
2023-10-11 00:13:00,SystemResetWarning,0820.1,5.00,000.00,028.0,024.3,000.0,036.5,029.5,9.6,0000.0,0025.18,0005.19,0003.70
2023-10-11 00:14:00,SystemResetWarning,0820.1,5.00,000.00,028.0,024.8,000.0,036.5,029.5,9.8,0000.0,0025.36,0005.25,0003.71
2023-10-11 00:15:00,SystemResetWarning,0820.0,4.99,000.00,028.0,025.2,000.0,036.5,029.6,9.5,0000.0,0023.77,0005.25,0003.71
2023-10-11 00:16:00,SystemResetWarning,0820.0,4.99,000.00,028.0,025.6,000.0,036.5,029.7,9.4,0000.0,0023.47,0005.22,0003.70
2023-10-11 00:17:00,SystemResetWarning,0820.0,5.00,000.00,028.0,026.0,000.0,036.5,029.7,9.5,0000.0,0022.18,0005.16,0003.69
2023-10-11 00:18:00,SystemResetWarning,0820.0,5.01,000.00,028.0,026.3,000.0,036.5,029.8,9.5,0000.0,0021.31,0005.13,0003.69
2023-10-11 00:19:00,SystemResetWarning,0820.0,5.01,000.00,028.1,026.5,000.0,036.5,029.9,9.6,0000.0,0021.73,0005.13,0003.70
2023-10-11 00:20:00,SystemResetWarning,0820.0,4.99,000.00,028.1,026.7,000.0,036.5,029.9,9.6,0000.0,0021.49,0005.05,0003.69
2023-10-11 00:21:00,SystemResetWarning,0820.0,4.99,000.00,028.2,026.9,000.0,036.6,030.0,9.8,0000.0,0020.89,0005.04,0003.70
2023-10-11 00:22:00,SystemResetWarning,0820.0,4.99,000.00,028.2,027.1,000.0,036.6,030.1,9.8,0000.0,0020.66,0005.05,0003.71
2023-10-11 00:23:00,SystemResetWarning,0820.0,5.00,000.00,028.2,027.2,000.0,036.6,030.1,9.7,0000.0,0018.93,0005.01,0003.71
2023-10-11 00:24:00,SystemResetWarning,0820.0,5.01,000.00,028.3,027.3,000.0,036.6,030.2,9.7,0000.0,0018.51,0004.93,0003.71
2023-10-11 00:25:00,SystemResetWarning,0820.0,5.00,000.00,028.3,027.0,000.0,036.7,030.2,10.0,0000.0,0017.46,0004.88,0003.70
2023-10-11 00:26:00,SystemResetWarning,0820.0,4.99,000.00,028.3,025.4,000.0,036.6,030.0,10.0,0000.0,0017.79,0004.83,0003.70
2023-10-11 00:27:00,SystemResetWarning,0820.2,5.02,000.00,028.2,024.8,000.0,036.6,029.9,10.3,0000.0,0017.90,0004.82,0003.70
2023-10-11 00:28:00,SystemResetWarning,0819.9,5.00,000.00,028.2,024.9,000.0,036.6,029.7,10.5,0000.0,0017.78,0004.82,0003.71
2023-10-11 00:29:00,SystemResetWarning,0819.9,5.00,000.00,028.1,025.3,000.0,036.6,029.7,10.6,0000.0,0018.27,0004.89,0003.72
2023-10-11 00:30:00,SystemResetWarning,0820.0,5.00,000.00,028.1,025.6,000.0,036.6,029.8,10.8,0000.0,0018.73,0004.89,0003.72
2023-10-11 00:31:00,SystemResetWarning,0819.9,5.00,000.00,028.1,026.0,000.0,036.6,029.9,10.9,0000.0,0018.50,0004.91,0003.73
2023-10-11 00:32:00,SystemResetWarning,0819.9,5.00,000.00,028.1,026.3,000.0,036.6,029.9,10.8,0000.0,0018.43,0004.89,0003.72
2023-10-11 00:33:00,SystemResetWarning,0820.1,5.00,000.00,028.2,026.5,000.0,036.6,030.0,10.8,0000.0,0018.50,0004.85,0003.71
2023-10-11 00:34:00,SystemResetWarning,0819.9,5.01,000.00,028.2,026.7,000.0,036.7,030.0,10.8,0000.0,0019.03,0004.79,0003.71
2023-10-11 00:35:00,SystemResetWarning,0820.0,4.99,000.00,028.2,026.9,000.0,036.7,030.1,10.9,0000.0,0017.80,0004.78,0003.71
2023-10-11 00:36:00,SystemResetWarning,0820.1,4.99,000.00,028.3,027.1,000.0,036.7,030.1,11.0,0000.0,0016.99,0004.72,0003.71
2023-10-11 00:37:00,SystemResetWarning,0820.2,5.00,000.00,028.3,027.2,000.0,036.7,030.2,11.1,0000.0,0017.27,0004.72,0003.72
2023-10-11 00:38:00,SystemResetWarning,0820.0,5.00,000.00,028.4,026.6,000.0,036.7,030.2,11.1,0000.0,0017.41,0004.73,0003.71
2023-10-11 00:39:00,SystemResetWarning,0819.9,5.00,000.00,028.3,025.0,000.0,036.6,030.0,11.2,0000.0,0016.94,0004.73,0003.70
2023-10-11 00:40:00,SystemResetWarning,0819.9,5.00,000.00,028.3,024.7,000.0,036.6,029.9,11.3,0000.0,0016.95,0004.73,0003.70
2023-10-11 00:41:00,SystemResetWarning,0819.9,5.01,000.00,028.2,024.9,000.0,036.6,029.7,11.4,0000.0,0016.42,0004.67,0003.68
2023-10-11 00:42:00,SystemResetWarning,0820.1,5.01,000.00,028.1,025.2,000.0,036.6,029.7,11.5,0000.0,0015.35,0004.63,0003.67
2023-10-11 00:43:00,SystemResetWarning,0820.1,5.00,000.00,028.1,025.6,000.0,036.6,029.8,11.6,0000.0,0015.15,0004.61,0003.65
2023-10-11 00:44:00,SystemResetWarning,0819.8,5.00,000.00,028.1,025.9,000.0,036.6,029.8,11.6,0000.0,0014.60,0004.60,0003.65
2023-10-11 00:45:00,SystemResetWarning,0820.0,4.99,000.00,028.2,026.2,000.0,036.6,029.9,11.6,0000.0,0013.48,0004.63,0003.66
2023-10-11 00:46:00,SystemResetWarning,0819.9,5.00,000.00,028.2,026.5,000.0,036.7,030.0,11.6,0000.0,0013.82,0004.60,0003.65
2023-10-11 00:47:00,SystemResetWarning,0819.8,5.00,000.00,028.2,026.7,000.0,036.7,030.0,11.6,0000.0,0014.01,0004.58,0003.65
2023-10-11 00:48:00,SystemResetWarning,0820.1,5.00,000.00,028.2,026.8,000.0,036.7,030.0,11.6,0000.0,0014.20,0004.59,0003.65
2023-10-11 00:49:00,SystemResetWarning,0819.9,5.00,000.00,028.3,027.0,000.0,036.7,030.1,11.6,0000.0,0013.18,0004.54,0003.65
2023-10-11 00:50:00,SystemResetWarning,0820.0,5.00,000.00,028.3,027.1,000.0,036.7,030.2,11.5,0000.0,0012.76,0004.50,0003.66
2023-10-11 00:51:00,SystemResetWarning,0819.9,4.99,000.00,028.4,026.9,000.0,036.7,030.2,11.5,0000.0,0012.74,0004.51,0003.68
2023-10-11 00:52:00,SystemResetWarning,0819.8,4.98,000.00,028.3,025.2,000.0,036.7,030.0,11.5,0000.0,0012.96,0004.63,0003.80
2023-10-11 00:53:00,SystemResetWarning,0820.0,5.01,000.00,028.2,023.8,000.0,036.6,029.6,11.5,0000.0,0013.76,0004.89,0004.03
2023-10-11 00:54:00,SystemResetWarning,0819.9,5.02,000.00,028.1,023.7,000.0,036.5,029.5,11.6,0000.0,0015.12,0005.05,0004.16
2023-10-11 00:55:00,SystemResetWarning,0820.0,5.00,000.00,028.0,024.1,000.0,036.5,029.4,11.7,0000.0,0015.47,0005.16,0004.28
2023-10-11 00:56:00,SystemResetWarning,0819.9,5.00,000.00,027.9,024.5,000.0,036.5,029.5,11.7,0000.0,0015.98,0005.34,0004.45
2023-10-11 00:57:00,SystemResetWarning,0819.9,4.99,000.00,027.9,025.0,000.0,036.5,029.5,11.8,0000.0,0015.53,0005.47,0004.57
2023-10-11 00:58:00,SystemResetWarning,0819.9,5.00,000.00,027.9,025.4,000.0,036.5,029.6,11.8,0000.0,0016.13,0005.54,0004.64
2023-10-11 00:59:00,SystemResetWarning,0819.9,5.00,000.00,027.9,025.8,000.0,036.5,029.6,11.8,0000.0,0015.79,0005.61,0004.69
